Meteo Giornale » Osservazioni meteo Italia » Rimini

ore: 22:50 - Osservazioni Meteo Rimini
Lat. 44° 2' N Lon. 12° 37' E Alt. 12 metri s.l.m.

sereno Europe/Rome

2 °C

Sereno

Temp. 24 Ore

2 °C

10 °C

Sud/Sud-Ovest

7.4 Km/h

Dew point 1 °C

Umidità 93 %

Visibilità  10 Km

Il sole sorge alle ore 07:26

Il sole tramonta alle ore 16:33

Data e Ora Cielo e Fenomeni T °C DP °C Um. % Pres. hPa Vis. km Vento km/h
Oggi h: 22:50 sereno Sereno 2 1 93 1027 10 S/SO 7.4
Oggi h: 22:20 sereno Sereno 2 1 93 1027 10 N 5.5
Oggi h: 21:50 sereno Sereno 3 1 86 1027 10 S/SO 7.4
Oggi h: 21:20 sereno Sereno 3 1 86 1027 10 SO 7.4
Oggi h: 20:50 sereno Sereno 3 1 86 1027 10 S/SO 7.4
Oggi h: 19:50 sereno Sereno 4 1 80 1026 10 S/SO 7.4
Oggi h: 19:20 sereno Sereno 4 1 80 1026 10 N 5.5
Oggi h: 18:50 sereno Sereno 4 2 86 1026 8 N 5.5
Oggi h: 18:20 sereno Sereno 5 2 80 1026 8 SO 7.4
Oggi h: 17:50 sereno Sereno 6 2 75 1026 8 O/SO 7.4
Oggi h: 16:50 sereno Sereno 6 2 75 1026 8 O 7.4
Oggi h: 16:20 sereno Sereno 7 2 70 1026 10 O 9.3
Oggi h: 15:50 sereno Sereno 8 2 65 1026 10 O 9.3
Oggi h: 15:20 sereno Sereno 8 2 65 1026 10 O 9.3
Oggi h: 14:50 sereno Sereno 9 2 61 1026 10 O 11.1
Oggi h: 14:20 sereno Sereno 9 2 61 1026 8 O 11.1
Oggi h: 13:50 poco_nuvoloso Poco Nuvoloso 9 2 61 1026 10 NO 11.1
Oggi h: 13:20 nuvoloso Nuvoloso 10 2 57 1026 10 O 11.1
Oggi h: 12:50 poco_nuvoloso Poco Nuvoloso 9 2 61 1026 10 O 11.1
Oggi h: 12:20 poco_nuvoloso Poco Nuvoloso 9 2 61 1026 10 O 13
Oggi h: 11:50 nuvoloso Nuvoloso 8 1 61 1026 10 O/NO 14.8
Oggi h: 11:20 molto_nuvoloso Molto Nuvoloso 7 1 65 1026 10 O 16.7
Oggi h: 10:50 molto_nuvoloso Molto Nuvoloso 7 1 65 1027 10 O 14.8
Oggi h: 10:20 molto_nuvoloso Molto Nuvoloso 6 1 70 1027 10 O 13
Oggi h: 09:50 molto_nuvoloso Molto Nuvoloso 6 1 70 1026 10 O 11.1
Oggi h: 08:50 poco_nuvoloso Poco Nuvoloso 4 1 80 1026 10 N 5.5
Oggi h: 08:20 poco_nuvoloso Poco Nuvoloso 4 1 80 1025 10 O/SO 7.4
Oggi h: 07:50 nuvoloso Nuvoloso 4 1 80 1025 10 O 7.4
Oggi h: 07:20 nuvoloso Nuvoloso 4 1 80 1025 10 N 5.5
Oggi h: 06:50 molto_nuvoloso Molto Nuvoloso 4 1 80 1025 10 O 7.4
Oggi h: 06:20 molto_nuvoloso Molto Nuvoloso 4 1 80 1025 10 O 7.4
Oggi h: 05:50 molto_nuvoloso Molto Nuvoloso 5 1 75 1025 10 O 9.3
Oggi h: 05:20 molto_nuvoloso Molto Nuvoloso 5 1 75 1024 10 O 9.3
Oggi h: 04:50 molto_nuvoloso Molto Nuvoloso 5 1 75 1025 10 O 7.4
Oggi h: 04:20 molto_nuvoloso Molto Nuvoloso 5 1 75 1025 10 O 11.1
Oggi h: 03:50 molto_nuvoloso Molto Nuvoloso 5 1 75 1025 10 O/SO 7.4
Oggi h: 02:50 molto_nuvoloso Molto Nuvoloso 4 1 80 1025 10 O/SO 7.4
Oggi h: 02:20 molto_nuvoloso Molto Nuvoloso 3 0 80 1025 10 O/SO 7.4
Oggi h: 01:50 poco_nuvoloso Poco Nuvoloso 3 0 80 1025 10 O/SO 9.3
Oggi h: 01:20 sereno Sereno 3 0 80 1025 10 O/SO 9.3
Oggi h: 00:50 sereno Sereno 3 0 80 1025 10 O/SO 11.1
Oggi h: 00:20 sereno Sereno 3 -0 80 1025 10 O/SO 7.4
Ieri h: 23:50 sereno Sereno 3 0 80 1024 10 O 7.4
Ieri h: 23:20 poco_nuvoloso Poco Nuvoloso 4 0 75 1025 10 O 9.3
Ieri h: 22:50 poco_nuvoloso Poco Nuvoloso 4 1 80 1024 10 O/SO 11.1